Content
SEND FEEDBACK

Daily
Averages
Monthly
Summary
Switzerland

GENEVA, SWITZERLAND


Home > Europe > Switzerland
Elevation: 1364 feet     Latitude: 46 15N     Longitude: 006 08E

WEATHER
 
SELECT A DAY
Number of Records: 305,866;   Date Range: 7/1/96 - 8/12/14
 
SHARE

PRINT THIS DATA

[ ← Previous Day ]
WEATHER ALMANAC - NOVEMBER 5, 2013
[ Next Day → ]
[ °C ]   °F
Weather ElementAverageHighLow
Temperature44.4 °F48.2 °F (12:20 am)39.2 °F (7:20 am)
Dewpoint40.4 °F46.4 °F (10:50 pm)36 °F (6:00 am)
Humidity84.6 %100 % (8:50 pm)62 % (12:00 pm)
Barometer29.68 in29.78 in (11:00 pm)29.59 in (12:20 am)
Wind Speed6.5 mph13.8 mph (2:50 pm)
Weather ElementAverage
Visibility7.1 mi
Wind DirectionSSW (207.1 °)

Weather ElementTotal
Precipitation---
Heating Degree Days21.3 (Base 65)
Averaged from 63 records on November 5, 2013
WEATHER CONDITIONS BREAKOUT
WIND DIRECTION BREAKOUT
WEATHER BY HOUR - NOVEMBER 5, 2013
[ °C ]   °F
Local TimeTemperatureDewpointHumidityBarometerVisibilityWind DirectionWind SpeedGust SpeedPrecipitationEventsConditions
12:20 AM48.2 °F42.8 °F82 %29.59 in6.2 miVariable5.8 mphMostly Cloudy
12:50 AM48.2 °F42.8 °F82 %29.59 in6.2 miVariable3.5 mphMostly Cloudy
1:00 AM46.0 °F42.0 °F82 %29.62 in25.0 miWSW (250°)4.6 mphPartly Cloudy
1:20 AM46.4 °F44.6 °F93 %29.59 in6.2 miWest (260°)3.5 mphMostly Cloudy
1:50 AM46.4 °F42.8 °F87 %29.59 in6.2 miVariable2.3 mphMostly Cloudy
2:00 AM46.0 °F43.0 °F84 %29.64 inWSW (250°)3.5 mph
2:50 AM44.6 °F41.0 °F87 %29.62 in6.2 miWSW (240°)4.6 mphMostly Cloudy
3:00 AM45.0 °F40.0 °F75 %29.67 inWest (280°)3.5 mph
3:20 AM46.4 °F39.2 °F76 %29.65 in6.2 miVariable3.5 mphMostly Cloudy
3:50 AM44.6 °F41.0 °F87 %29.65 in6.2 miSouth (180°)4.6 mphMostly Cloudy
4:50 AM41.0 °F39.2 °F93 %29.65 in6.2 miSSW (210°)4.6 mphPartly Cloudy
5:00 AM42.0 °F37.0 °F76 %29.69 inSW (220°)6.9 mph
5:20 AM42.8 °F37.4 °F81 %29.65 in6.2 miSSW (210°)8.1 mphPartly Cloudy
5:50 AM42.8 °F37.4 °F81 %29.65 in6.2 miSSW (200°)5.8 mphPartly Cloudy
6:00 AM42.0 °F36.0 °F74 %29.70 inSW (230°)4.6 mph
6:20 AM42.8 °F37.4 °F81 %29.65 in6.2 miSW (220°)4.6 mphPartly Cloudy
6:50 AM42.8 °F37.4 °F81 %29.68 in6.2 miWSW (240°)5.8 mphPartly Cloudy
7:00 AM40.0 °F36.0 °F81 %29.71 in31.0 miWest (260°)5.8 mphScattered Clouds
7:20 AM39.2 °F37.4 °F93 %29.68 in6.2 miWSW (250°)5.8 mphScattered Clouds
7:50 AM41.0 °F37.4 °F87 %29.68 in6.2 miWSW (240°)5.8 mphScattered Clouds
8:00 AM41.0 °F36.0 °F77 %29.72 inWSW (240°)5.8 mph
8:20 AM41.0 °F37.4 °F87 %29.68 in6.2 miWSW (240°)4.6 mphPartly Cloudy
8:50 AM42.8 °F37.4 °F81 %29.68 in6.2 miWSW (250°)3.5 mphScattered Clouds
9:00 AM44.0 °F38.0 °F73 %29.71 inWest (270°)3.5 mph
9:20 AM44.6 °F39.2 °F81 %29.68 in6.2 miWSW (240°)5.8 mphMostly Cloudy
9:50 AM44.6 °F41.0 °F87 %29.68 in6.2 miSW (230°)6.9 mphMostly Cloudy
10:20 AM46.4 °F39.2 °F76 %29.68 in6.2 miSW (220°)9.2 mphOvercast
10:50 AM46.4 °F39.2 °F76 %29.68 in6.2 miSSW (200°)11.5 mphOvercast
11:00 AM46.0 °F38.0 °F64 %29.71 inSSW (200°)10.4 mph
11:20 AM46.4 °F37.4 °F71 %29.68 in6.2 miSSW (210°)10.4 mphOvercast
11:50 AM46.4 °F39.2 °F76 %29.68 in6.2 miSW (230°)11.5 mphOvercast
12:00 PM47.0 °F38.0 °F62 %29.69 inWSW (240°)10.4 mph
12:20 PM46.4 °F39.2 °F76 %29.65 in6.2 miWSW (240°)9.2 mphOvercast
12:50 PM46.4 °F39.2 °F76 %29.65 in6.2 miWSW (240°)10.4 mphOvercast
1:00 PM47.0 °F38.0 °F63 %29.67 in37.0 miWSW (240°)11.5 mphOvercast
1:20 PM46.4 °F41.0 °F81 %29.65 in6.2 miWSW (240°)9.2 mphOvercast
1:50 PM46.4 °F39.2 °F76 %29.65 in6.2 miSW (230°)12.7 mphOvercast
2:00 PM47.0 °F39.0 °F67 %29.68 inSW (230°)11.5 mph
2:20 PM46.4 °F41.0 °F81 %29.65 in6.2 miSW (230°)12.7 mphRainLight Rain
2:50 PM44.6 °F39.2 °F81 %29.65 in5.0 miWSW (240°)13.8 mphRainLight Rain
3:00 PM44.0 °F38.0 °F74 %29.70 inWSW (240°)12.7 mph
3:20 PM42.8 °F39.2 °F87 %29.68 in3.7 miWSW (240°)12.7 mphRainLight Rain
3:50 PM42.8 °F41.0 °F93 %29.68 in3.1 miWSW (240°)9.2 mphRainRain
4:20 PM42.8 °F41.0 °F93 %29.68 in3.7 miWSW (250°)6.9 mphRainLight Rain
4:50 PM42.8 °F41.0 °F93 %29.65 in5.6 miWest (280°)6.9 mphRainLight Rain
5:20 PM42.8 °F41.0 °F93 %29.68 in4.3 miWest (270°)6.9 mphRainLight Rain
5:50 PM42.8 °F41.0 °F93 %29.68 in4.3 miSW (230°)5.8 mphRainLight Rain
6:00 PM43.0 °F41.0 °F91 %29.72 inWSW (240°)8.1 mph
6:20 PM42.8 °F41.0 °F93 %29.68 in3.7 miWSW (240°)9.2 mphLight Drizzle
6:50 PM42.8 °F41.0 °F93 %29.71 in3.1 miSW (230°)6.9 mphDrizzle
7:20 PM42.8 °F41.0 °F93 %29.71 in4.3 miWSW (240°)5.8 mphLight Drizzle
7:50 PM44.6 °F42.8 °F93 %29.71 in5.0 miWSW (240°)3.5 mphLight Drizzle
8:00 PM44.0 °F42.0 °F92 %29.75 inSSW (210°)4.6 mph
8:20 PM44.6 °F42.8 °F93 %29.71 in6.2 miWSW (240°)2.3 mphLight Drizzle
8:50 PM44.6 °F44.6 °F100 %29.71 in3.7 miVariable2.3 mphLight Drizzle
9:00 PM45.0 °F43.0 °F90 %29.76 inNNW (330°)1.2 mph
9:20 PM44.6 °F44.6 °F100 %29.74 in5.6 miSW (220°)5.8 mphLight Drizzle
9:50 PM44.6 °F44.6 °F100 %29.74 in6.2 miSouth (190°)5.8 mphLight Drizzle
10:20 PM44.6 °F44.6 °F100 %29.74 in4.3 miWSW (250°)3.5 mphRainLight Rain
10:50 PM46.4 °F46.4 °F100 %29.74 in4.3 miVariable3.5 mphRainLight Rain
11:00 PM46.0 °F44.0 °F92 %29.78 inWest (270°)2.3 mph
11:20 PM46.4 °F46.4 °F100 %29.77 in6.2 miVariable3.5 mphRainLight Rain
11:50 PM46.4 °F46.4 °F100 %29.77 in6.2 miVariable1.2 mphRainLight Rain
Hourly data recorded from LSGG, located miles away from Geneva, Switzerland







STORIES FROM OUR PARTNERS